Вернуться в каталог

STARLINK-5774

АктивенСвязьVLEO
NORAD 56029·PAYLOAD·🇺🇸 United States

Запущен Mar 24, 2023 с Cape Canaveral Space Force Station

Loading…

Ближайшие Пролёты (ближайшие 24 часа)

TLE

СвежийSource: CelesTrak SupGP

Эпоха: Sep 15, 2026, 01:55 UTC

1 56029C 23042AV  26258.08034722 -.00044883  00000+0 -16256-2 0  2580
2 56029  43.0026  55.3683 0001492 270.1706  86.3906 15.27601894    14

Отслеживайте STARLINK-5774 в реальном времени с AllMySat

Download on the App Store